| time (UTC) | temp F | wind direction | speed MPH | gust MPH | rain 1hr in | rain 24hr in | rain mn in | humidity % | barometer mb |
| 20260504223013 | 68 | 246 | 5.0 | 17.0 | 0.00 | 0.51 | 0.00 | 87 | 1014.8 |
| 20260504222951 | 68 | 275 | 9.0 | 17.0 | 0.00 | 0.51 | 0.00 | 87 | 1014.8 |
| 20260504222502 | 68 | 2 | 3.0 | 7.0 | 0.00 | 0.51 | 0.00 | 87 | 1014.7 |
| 20260504222451 | 68 | 263 | 2.0 | 8.0 | 0.00 | 0.51 | 0.00 | 87 | 1014.7 |
| 20260504221953 | 68 | 271 | 3.0 | 8.0 | 0.00 | 0.51 | 0.00 | 86 | 1014.7 |
| 20260504221951 | 68 | 258 | 3.0 | 8.0 | 0.00 | 0.51 | 0.00 | 86 | 1014.7 |
| 20260504221451 | 68 | 278 | 4.0 | 8.0 | 0.00 | 0.51 | 0.00 | 86 | 1014.7 |
| 20260504221443 | 68 | 266 | 4.0 | 8.0 | 0.00 | 0.51 | 0.00 | 86 | 1014.8 |
| 20260504220951 | 68 | 292 | 1.0 | 7.0 | 0.00 | 0.51 | 0.00 | 86 | 1014.8 |
| 20260504220932 | 68 | 324 | 2.0 | 9.0 | 0.00 | 0.51 | 0.00 | 86 | 1014.8 |
| 20260504220451 | 69 | 232 | 6.0 | 15.0 | 0.00 | 0.51 | 0.00 | 85 | 1014.8 |
| 20260504220422 | 69 | 224 | 3.0 | 15.0 | 0.00 | 0.51 | 0.00 | 85 | 1014.7 |
| 20260504215951 | 69 | 359 | 2.0 | 13.0 | 0.00 | 0.51 | 0.00 | 84 | 1014.7 |
| 20260504215913 | 69 | 53 | 2.0 | 13.0 | 0.00 | 0.51 | 0.00 | 84 | 1014.8 |
| 20260504215451 | 69 | 275 | 2.0 | 7.0 | 0.00 | 0.51 | 0.00 | 84 | 1014.7 |
| 20260504215402 | 69 | 262 | 2.0 | 7.0 | 0.00 | 0.51 | 0.00 | 84 | 1014.8 |
| 20260504214951 | 69 | 255 | 2.0 | 8.0 | 0.00 | 0.51 | 0.00 | 84 | 1014.8 |
| 20260504214852 | 69 | 257 | 3.0 | 8.0 | 0.00 | 0.51 | 0.00 | 84 | 1014.8 |
| 20260504214451 | 69 | 33 | 3.0 | 11.0 | 0.00 | 0.51 | 0.00 | 84 | 1014.5 |
| 20260504214342 | 69 | 238 | 2.0 | 11.0 | 0.00 | 0.51 | 0.00 | 84 | 1014.6 |
| 20260504213951 | 69 | 325 | 3.0 | 18.0 | 0.00 | 0.51 | 0.00 | 84 | 1014.4 |
| 20260504213832 | 69 | 214 | 6.0 | 18.0 | 0.00 | 0.51 | 0.00 | 84 | 1014.4 |
| 20260504213451 | 69 | 294 | 6.0 | 17.0 | 0.00 | 0.51 | 0.00 | 84 | 1014.3 |
| 20260504213323 | 69 | 249 | 8.0 | 17.0 | 0.00 | 0.51 | 0.00 | 84 | 1014.2 |
| 20260504212950 | 69 | 360 | 1.0 | 5.0 | 0.00 | 0.51 | 0.00 | 84 | 1014.2 |
| 20260504212812 | 69 | 343 | 4.0 | 10.0 | 0.00 | 0.51 | 0.00 | 84 | 1014.2 |
| 20260504212451 | 69 | 352 | 3.0 | 10.0 | 0.00 | 0.51 | 0.00 | 83 | 1014.2 |
| 20260504212304 | 69 | 243 | 3.0 | 7.0 | 0.00 | 0.51 | 0.00 | 83 | 1014.2 |
| 20260504211950 | 69 | 291 | 3.0 | 9.0 | 0.00 | 0.51 | 0.00 | 83 | 1014.3 |
| 20260504211752 | 70 | 296 | 2.0 | 13.0 | 0.00 | 0.51 | 0.00 | 83 | 1014.3 |
| 20260504211451 | 70 | 301 | 3.0 | 13.0 | 0.00 | 0.51 | 0.00 | 83 | 1014.3 |
| 20260504211242 | 70 | 240 | 4.0 | 10.0 | 0.00 | 0.51 | 0.00 | 83 | 1014.4 |
| 20260504210950 | 70 | 236 | 5.0 | 9.0 | 0.00 | 0.51 | 0.00 | 83 | 1014.3 |
| 20260504210732 | 70 | 203 | 4.0 | 14.0 | 0.00 | 0.51 | 0.00 | 83 | 1014.3 |
| 20260504210450 | 70 | 352 | 2.0 | 15.0 | 0.00 | 0.51 | 0.00 | 83 | 1014.2 |
| 20260504210222 | 70 | 270 | 5.0 | 10.0 | 0.00 | 0.51 | 0.00 | 83 | 1014.2 |
| 20260504205951 | 70 | 263 | 4.0 | 9.0 | 0.00 | 0.51 | 0.00 | 83 | 1014.2 |
| 20260504205710 | 70 | 294 | 2.0 | 9.0 | 0.00 | 0.51 | 0.00 | 83 | 1014.3 |
| 20260504205450 | 70 | 256 | 3.0 | 9.0 | 0.00 | 0.51 | 0.00 | 83 | 1014.3 |
| 20260504205202 | 70 | 298 | 3.0 | 10.0 | 0.00 | 0.51 | 0.00 | 83 | 1014.4 |
| 20260504204951 | 70 | 272 | 6.0 | 10.0 | 0.00 | 0.51 | 0.00 | 83 | 1014.4 |
| 20260504204652 | 70 | 267 | 0.0 | 10.0 | 0.00 | 0.51 | 0.00 | 83 | 1014.4 |
| 20260504204449 | 70 | 336 | 4.0 | 10.0 | 0.00 | 0.51 | 0.00 | 83 | 1014.4 |
| 20260504204142 | 70 | 74 | 2.0 | 9.0 | 0.00 | 0.51 | 0.00 | 82 | 1014.3 |
| 20260504203950 | 70 | 232 | 1.0 | 16.0 | 0.00 | 0.51 | 0.00 | 83 | 1014.3 |
| 20260504203632 | 70 | 298 | 4.0 | 16.0 | 0.00 | 0.51 | 0.00 | 83 | 1014.2 |
| 20260504203451 | 70 | 232 | 9.0 | 15.0 | 0.00 | 0.51 | 0.00 | 83 | 1014.2 |
| 20260504203121 | 70 | 26 | 4.0 | 13.0 | 0.00 | 0.51 | 0.00 | 83 | 1014.2 |
| 20260504202950 | 70 | 296 | 2.0 | 13.0 | 0.00 | 0.51 | 0.00 | 83 | 1014.1 |
| 20260504202612 | 70 | 30 | 3.0 | 8.0 | 0.00 | 0.51 | 0.00 | 83 | 1014.1 |
| 20260504202451 | 70 | 234 | 2.0 | 10.0 | 0.00 | 0.51 | 0.00 | 83 | 1014.2 |
| 20260504202101 | 70 | 250 | 5.0 | 18.0 | 0.00 | 0.51 | 0.00 | 83 | 1014.2 |
| 20260504201950 | 70 | 10 | 5.0 | 18.0 | 0.00 | 0.51 | 0.00 | 83 | 1014.1 |
| 20260504201552 | 70 | 340 | 4.0 | 12.0 | 0.00 | 0.51 | 0.00 | 83 | 1014.2 |
| 20260504201450 | 70 | 214 | 6.0 | 12.0 | 0.00 | 0.51 | 0.00 | 83 | 1014.1 |
| 20260504201041 | 70 | 171 | 2.0 | 12.0 | 0.00 | 0.51 | 0.00 | 83 | 1014.2 |
| 20260504200950 | 70 | 271 | 4.0 | 12.0 | 0.00 | 0.51 | 0.00 | 83 | 1014.2 |
| 20260504200531 | 70 | 299 | 3.0 | 10.0 | 0.00 | 0.51 | 0.00 | 83 | 1014.1 |
| 20260504200450 | 70 | 267 | 5.0 | 10.0 | 0.00 | 0.51 | 0.00 | 83 | 1014.2 |
| 20260504200022 | 70 | 355 | 2.0 | 5.0 | 0.00 | 0.51 | 0.00 | 83 | 1014.1 |
| 20260504195950 | 70 | 279 | 1.0 | 4.0 | 0.00 | 0.51 | 0.00 | 83 | 1014.1 |
| 20260504195512 | 70 | 152 | 2.0 | 16.0 | 0.00 | 0.51 | 0.00 | 83 | 1014.2 |
| 20260504195450 | 70 | 317 | 4.0 | 16.0 | 0.00 | 0.51 | 0.00 | 83 | 1014.2 |
| 20260504195001 | 70 | 331 | 2.0 | 6.0 | 0.00 | 0.51 | 0.00 | 84 | 1014.2 |
| 20260504194950 | 70 | 360 | 1.0 | 6.0 | 0.00 | 0.51 | 0.00 | 84 | 1014.2 |
| 20260504194452 | 70 | 63 | 1.0 | 12.0 | 0.00 | 0.51 | 0.00 | 83 | 1014.1 |
| 20260504194449 | 70 | 109 | 1.0 | 12.0 | 0.00 | 0.51 | 0.00 | 83 | 1014.2 |
| 20260504193950 | 70 | 335 | 8.0 | 21.0 | 0.00 | 0.51 | 0.00 | 84 | 1014.0 |
| 20260504193941 | 70 | 18 | 10.0 | 21.0 | 0.00 | 0.51 | 0.00 | 84 | 1014.0 |
| 20260504193450 | 70 | 269 | 7.0 | 14.0 | 0.00 | 0.51 | 0.00 | 84 | 1014.0 |
| 20260504193431 | 70 | 272 | 10.0 | 14.0 | 0.00 | 0.51 | 0.00 | 84 | 1014.0 |
| 20260504192921 | 70 | 232 | 4.0 | 10.0 | 0.00 | 0.51 | 0.00 | 84 | 1014.0 |
| 20260504192450 | 70 | 283 | 6.0 | 10.0 | 0.00 | 0.51 | 0.00 | 84 | 1014.0 |
| 20260504192411 | 70 | 277 | 4.0 | 10.0 | 0.00 | 0.51 | 0.00 | 84 | 1013.9 |
| 20260504191950 | 70 | 294 | 5.0 | 13.0 | 0.00 | 0.51 | 0.00 | 84 | 1014.0 |
| 20260504191901 | 70 | 254 | 5.0 | 16.0 | 0.00 | 0.51 | 0.00 | 84 | 1014.0 |
| 20260504191449 | 70 | 226 | 6.0 | 16.0 | 0.00 | 0.51 | 0.00 | 84 | 1014.0 |
| 20260504191351 | 70 | 255 | 4.0 | 10.0 | 0.00 | 0.51 | 0.00 | 84 | 1014.0 |
| 20260504190950 | 70 | 24 | 0.0 | 9.0 | 0.00 | 0.51 | 0.00 | 84 | 1014.1 |
| 20260504190841 | 70 | 53 | 0.0 | 9.0 | 0.00 | 0.51 | 0.00 | 84 | 1014.1 |
| 20260504190450 | 70 | 20 | 1.0 | 10.0 | 0.00 | 0.51 | 0.00 | 85 | 1014.2 |
| 20260504190331 | 70 | 37 | 4.0 | 16.0 | 0.00 | 0.51 | 0.00 | 85 | 1014.1 |
| 20260504185949 | 70 | 25 | 4.0 | 16.0 | 0.00 | 0.51 | 0.00 | 85 | 1014.2 |
| 20260504185820 | 70 | 67 | 1.0 | 8.0 | 0.00 | 0.51 | 0.00 | 85 | 1014.2 |
| 20260504185449 | 70 | 334 | 3.0 | 8.0 | 0.00 | 0.51 | 0.00 | 85 | 1014.2 |
| 20260504185311 | 70 | 336 | 1.0 | 7.0 | 0.00 | 0.51 | 0.00 | 85 | 1014.2 |
| 20260504184950 | 70 | 34 | 3.0 | 7.0 | 0.00 | 0.51 | 0.00 | 85 | 1014.2 |
| 20260504184800 | 70 | 47 | 2.0 | 6.0 | 0.00 | 0.51 | 0.00 | 85 | 1014.3 |
| 20260504184449 | 70 | 205 | 2.0 | 7.0 | 0.00 | 0.51 | 0.00 | 85 | 1014.4 |
| 20260504184251 | 70 | 313 | 2.0 | 7.0 | 0.00 | 0.51 | 0.00 | 84 | 1014.4 |
| 20260504183949 | 70 | 245 | 1.0 | 8.0 | 0.00 | 0.51 | 0.00 | 84 | 1014.4 |
| 20260504183741 | 70 | 359 | 0.0 | 8.0 | 0.00 | 0.51 | 0.00 | 84 | 1014.3 |
| 20260504183449 | 70 | 351 | 3.0 | 6.0 | 0.00 | 0.51 | 0.00 | 84 | 1014.3 |
| 20260504183230 | 70 | 110 | 3.0 | 8.0 | 0.00 | 0.51 | 0.00 | 84 | 1014.4 |
| 20260504182949 | 70 | 330 | 4.0 | 8.0 | 0.00 | 0.51 | 0.00 | 84 | 1014.4 |
| 20260504182721 | 71 | 273 | 2.0 | 4.0 | 0.00 | 0.51 | 0.00 | 84 | 1014.3 |
| 20260504182450 | 71 | 62 | 0.0 | 12.0 | 0.00 | 0.51 | 0.00 | 84 | 1014.4 |
| 20260504182210 | 71 | 347 | 6.0 | 12.0 | 0.00 | 0.51 | 0.00 | 83 | 1014.5 |
| 20260504181949 | 71 | 46 | 2.0 | 7.0 | 0.00 | 0.51 | 0.00 | 83 | 1014.7 |
| 20260504181700 | 71 | 360 | 1.0 | 12.0 | 0.00 | 0.51 | 0.00 | 83 | 1014.9 |
| 20260504181449 | 71 | 27 | 3.0 | 14.0 | 0.00 | 0.51 | 0.00 | 83 | 1014.8 |
| 20260504181151 | 71 | 21 | 4.0 | 14.0 | 0.00 | 0.51 | 0.00 | 83 | 1014.9 |
| 20260504180949 | 71 | 25 | 1.0 | 9.0 | 0.00 | 0.51 | 0.00 | 83 | 1014.9 |
| 20260504180641 | 71 | 359 | 3.0 | 13.0 | 0.00 | 0.51 | 0.00 | 83 | 1015.0 |
| 20260504180449 | 71 | 201 | 8.0 | 13.0 | 0.00 | 0.51 | 0.00 | 83 | 1015.0 |
| 20260504180130 | 71 | 138 | 1.0 | 6.0 | 0.00 | 0.51 | 0.00 | 83 | 1014.9 |
| 20260504175949 | 71 | 343 | 2.0 | 6.0 | 0.00 | 0.51 | 0.00 | 83 | 1015.0 |
| 20260504175621 | 71 | 181 | 3.0 | 6.0 | 0.00 | 0.51 | 0.00 | 83 | 1015.1 |
| 20260504175449 | 71 | 273 | 2.0 | 5.0 | 0.00 | 0.51 | 0.00 | 83 | 1015.1 |
| 20260504175110 | 71 | 308 | 1.0 | 12.0 | 0.00 | 0.51 | 0.00 | 83 | 1015.1 |
| 20260504174949 | 71 | 268 | 1.0 | 14.0 | 0.00 | 0.51 | 0.00 | 83 | 1015.2 |
| 20260504174600 | 71 | 270 | 4.0 | 14.0 | 0.00 | 0.51 | 0.00 | 83 | 1015.2 |
| 20260504174449 | 71 | 225 | 3.0 | 13.0 | 0.00 | 0.51 | 0.00 | 83 | 1015.1 |
| 20260504174051 | 72 | 27 | 2.0 | 10.0 | 0.00 | 0.51 | 0.00 | 84 | 1015.1 |
| 20260504173949 | 71 | 243 | 0.0 | 10.0 | 0.00 | 0.51 | 0.00 | 83 | 1015.2 |
| 20260504173540 | 71 | 330 | 5.0 | 12.0 | 0.00 | 0.51 | 0.00 | 83 | 1015.1 |
| 20260504173449 | 71 | 10 | 3.0 | 12.0 | 0.00 | 0.51 | 0.00 | 84 | 1015.1 |
| 20260504173030 | 72 | 345 | 2.0 | 8.0 | 0.00 | 0.51 | 0.00 | 83 | 1015.2 |
| 20260504172949 | 72 | 356 | 2.0 | 8.0 | 0.00 | 0.51 | 0.00 | 83 | 1015.2 |
| 20260504172520 | 72 | 343 | 1.0 | 6.0 | 0.00 | 0.51 | 0.00 | 83 | 1015.3 |
| 20260504172448 | 72 | 13 | 0.0 | 6.0 | 0.00 | 0.51 | 0.00 | 83 | 1015.3 |
| 20260504172010 | 72 | 95 | 4.0 | 7.0 | 0.00 | 0.51 | 0.00 | 83 | 1015.3 |
| 20260504171949 | 72 | 30 | 4.0 | 7.0 | 0.00 | 0.51 | 0.00 | 83 | 1015.3 |
| 20260504171500 | 72 | 48 | 2.0 | 14.0 | 0.00 | 0.51 | 0.00 | 83 | 1015.3 |
| 20260504171448 | 72 | 37 | 3.0 | 14.0 | 0.00 | 0.51 | 0.00 | 83 | 1015.3 |
| 20260504170951 | 72 | 34 | 4.0 | 14.0 | 0.00 | 0.51 | 0.00 | 82 | 1015.4 |
| 20260504170949 | 72 | 360 | 4.0 | 14.0 | 0.00 | 0.51 | 0.00 | 82 | 1015.4 |
| 20260504170448 | 72 | 260 | 2.0 | 7.0 | 0.00 | 0.51 | 0.00 | 82 | 1015.4 |
| 20260504170439 | 72 | 312 | 1.0 | 7.0 | 0.00 | 0.51 | 0.00 | 82 | 1015.4 |
| 20260504160240 | 72 | 313 | 3.0 | 8.0 | 0.00 | 0.51 | 0.00 | 84 | 1015.7 |
| 20260504151059 | 71 | 217 | 3.0 | 17.0 | 0.00 | 0.51 | 0.00 | 85 | 1016.4 |
| 20260504150947 | 71 | 360 | 3.0 | 17.0 | 0.00 | 0.51 | 0.00 | 85 | 1016.4 |
| 20260504150549 | 71 | 252 | 9.0 | 13.0 | 0.00 | 0.51 | 0.00 | 85 | 1016.3 |
| 20260504150448 | 71 | 225 | 1.0 | 9.0 | 0.00 | 0.51 | 0.00 | 85 | 1016.4 |
| 20260504140948 | 72 | 351 | 1.0 | 18.0 | 0.00 | 0.51 | 0.00 | 86 | 1016.1 |
| 20260504140858 | 71 | 274 | 10.0 | 18.0 | 0.00 | 0.51 | 0.00 | 86 | 1016.1 |
| 20260504140447 | 72 | 337 | 4.0 | 13.0 | 0.00 | 0.51 | 0.00 | 86 | 1016.1 |
| 20260504140348 | 72 | 2 | 7.0 | 17.0 | 0.00 | 0.51 | 0.00 | 86 | 1016.1 |
| 20260504130658 | 73 | 231 | 4.0 | 12.0 | 0.00 | 0.51 | 0.00 | 85 | 1015.7 |
| 20260504130447 | 73 | 263 | 4.0 | 12.0 | 0.00 | 0.51 | 0.00 | 85 | 1015.7 |
| 20260504130148 | 73 | 252 | 2.0 | 12.0 | 0.00 | 0.51 | 0.00 | 85 | 1015.6 |
| 20260504110445 | 73 | 339 | 5.0 | 10.0 | 0.00 | 0.51 | 0.00 | 85 | 1015.0 |
| 20260504110257 | 73 | 119 | 2.0 | 11.0 | 0.00 | 0.51 | 0.00 | 85 | 1015.1 |
| 20260504100607 | 73 | 219 | 1.0 | 13.0 | 0.00 | 0.51 | 0.00 | 85 | 1014.5 |
| 20260504100446 | 73 | 317 | 1.0 | 13.0 | 0.00 | 0.51 | 0.00 | 85 | 1014.4 |
| 20260504081944 | 77 | 56 | 6.0 | 15.0 | 0.10 | 0.48 | 0.00 | 75 | 1014.6 |
| 20260504081736 | 77 | 50 | 0.0 | 15.0 | 0.11 | 0.48 | 0.00 | 75 | 1014.6 |
| 20260504081445 | 77 | 113 | 2.0 | 9.0 | 0.12 | 0.49 | 0.00 | 74 | 1014.5 |
| 20260504081226 | 77 | 57 | 2.0 | 10.0 | 0.14 | 0.49 | 0.00 | 74 | 1014.6 |
| 20260504080944 | 77 | 69 | 5.0 | 10.0 | 0.14 | 0.49 | 0.00 | 74 | 1014.7 |
| 20260504080716 | 77 | 81 | 1.0 | 9.0 | 0.11 | 0.47 | 0.00 | 74 | 1014.8 |
| 20260504080444 | 77 | 360 | 1.0 | 9.0 | 0.11 | 0.46 | 0.00 | 74 | 1014.8 |
| 20260504080206 | 77 | 46 | 3.0 | 8.0 | 0.10 | 0.44 | 0.00 | 74 | 1014.9 |
| 20260504050625 | 81 | 27 | 11.0 | 19.0 | 0.04 | 1.02 | 0.00 | 62 | 1015.9 |
| 20260504050442 | 82 | 41 | 8.0 | 15.0 | 0.04 | 1.05 | 0.00 | 62 | 1015.9 |
| 20260504045943 | 81 | 339 | 8.0 | 14.0 | 0.02 | 1.09 | 0.00 | 63 | 1015.9 |
| 20260504045605 | 81 | 360 | 3.0 | 18.0 | 0.02 | 1.15 | 0.00 | 64 | 1015.8 |
| 20260504045443 | 81 | 55 | 8.0 | 18.0 | 0.02 | 1.18 | 0.00 | 64 | 1015.9 |
| 20260504045054 | 81 | 14 | 1.0 | 13.0 | 0.02 | 1.21 | 0.00 | 64 | 1016.0 |
| 20260504044943 | 81 | 31 | 5.0 | 13.0 | 0.02 | 1.22 | 0.00 | 65 | 1016.0 |
| 20260504044544 | 81 | 51 | 3.0 | 19.0 | 0.02 | 1.27 | 0.00 | 65 | 1016.0 |
| 20260504044443 | 80 | 33 | 5.0 | 19.0 | 0.02 | 1.27 | 0.00 | 65 | 1016.0 |
| 20260504044034 | 80 | 38 | 5.0 | 22.0 | 0.02 | 1.37 | 0.00 | 66 | 1016.0 |
| 20260504043942 | 80 | 356 | 2.0 | 22.0 | 0.02 | 1.37 | 0.00 | 66 | 1016.0 |
| 20260504043524 | 81 | 204 | 5.0 | 12.0 | 0.01 | 1.45 | 0.00 | 65 | 1015.9 |
| 20260504043443 | 81 | 127 | 7.0 | 12.0 | 0.01 | 1.45 | 0.00 | 65 | 1015.9 |
| 20260504043015 | 82 | 266 | 3.0 | 7.0 | 0.01 | 1.54 | 0.00 | 66 | 1015.8 |
| 20260504042943 | 82 | 246 | 3.0 | 7.0 | 0.01 | 1.54 | 0.00 | 66 | 1015.8 |
| 20260504042505 | 82 | 56 | 2.0 | 8.0 | 0.02 | 1.62 | 0.00 | 65 | 1015.8 |
| 20260504042442 | 82 | 43 | 2.0 | 8.0 | 0.02 | 1.68 | 0.00 | 65 | 1015.8 |
| 20260504041954 | 81 | 265 | 6.0 | 9.0 | 0.02 | 1.73 | 0.00 | 66 | 1016.0 |
| 20260504041943 | 81 | 253 | 5.0 | 9.0 | 0.02 | 1.75 | 0.00 | 66 | 1015.9 |
| 20260504041445 | 80 | 314 | 5.0 | 10.0 | 0.02 | 1.84 | 0.00 | 66 | 1015.9 |
| 20260504041442 | 80 | 265 | 5.0 | 10.0 | 0.02 | 1.84 | 0.00 | 66 | 1015.9 |
| 20260504040943 | 80 | 44 | 2.0 | 10.0 | 0.02 | 1.96 | 0.00 | 67 | 1016.1 |
| 20260504040934 | 80 | 23 | 2.0 | 10.0 | 0.02 | 1.96 | 0.00 | 67 | 1016.2 |
| 20260504040443 | 80 | 25 | 3.0 | 8.0 | 0.01 | 2.01 | 0.00 | 68 | 1016.2 |
| 20260504040423 | 80 | 63 | 1.0 | 8.0 | 0.01 | 2.01 | 0.00 | 68 | 1016.2 |
| 20260504035942 | 79 | 5 | 6.0 | 10.0 | 0.01 | 2.09 | 0.00 | 67 | 1016.2 |
| 20260504035443 | 79 | 33 | 3.0 | 6.0 | 0.02 | 2.23 | 0.00 | 68 | 1016.2 |
| 20260504035404 | 79 | 35 | 3.0 | 6.0 | 0.02 | 2.23 | 0.00 | 68 | 1016.2 |
| 20260504034942 | 79 | 79 | 3.0 | 8.0 | 0.02 | 2.37 | 0.00 | 67 | 1016.3 |
| 20260504034853 | 79 | 68 | 5.0 | 8.0 | 0.02 | 2.37 | 0.00 | 67 | 1016.3 |
| 20260504034442 | 80 | 301 | 1.0 | 3.0 | 0.02 | 2.49 | 0.00 | 67 | 1016.3 |
| 20260504034344 | 80 | 110 | 1.0 | 3.0 | 0.02 | 2.49 | 0.00 | 68 | 1016.3 |
| 20260504033943 | 80 | 110 | 1.0 | 6.0 | 0.02 | 2.51 | 0.00 | 68 | 1016.2 |
| 20260504033834 | 79 | 300 | 4.0 | 6.0 | 0.02 | 2.53 | 0.00 | 67 | 1016.2 |
| 20260504033442 | 80 | 205 | 4.0 | 6.0 | 0.02 | 2.58 | 0.00 | 67 | 1016.3 |
| 20260504033323 | 80 | 176 | 1.0 | 4.0 | 0.02 | 2.58 | 0.00 | 68 | 1016.3 |
| 20260504032942 | 79 | 36 | 2.0 | 8.0 | 0.02 | 2.64 | 0.00 | 68 | 1016.3 |
| 20260504032814 | 79 | 31 | 1.0 | 8.0 | 0.02 | 2.64 | 0.00 | 68 | 1016.2 |
| 20260504032443 | 79 | 29 | 2.0 | 9.0 | 0.01 | 2.74 | 0.00 | 67 | 1016.2 |
| 20260504032304 | 79 | 27 | 6.0 | 9.0 | 0.02 | 2.76 | 0.00 | 67 | 1016.2 |
| 20260504031942 | 79 | 303 | 1.0 | 11.0 | 0.02 | 2.84 | 0.00 | 68 | 1016.2 |
| 20260504031753 | 79 | 349 | 3.0 | 12.0 | 0.02 | 2.85 | 0.00 | 68 | 1016.2 |
| 20260504031442 | 79 | 27 | 7.0 | 12.0 | 0.02 | 2.97 | 0.00 | 67 | 1016.2 |
| 20260504031244 | 79 | 117 | 5.0 | 10.0 | 0.02 | 3.04 | 0.00 | 68 | 1016.4 |
| 20260504030942 | 79 | 10 | 5.0 | 10.0 | 0.02 | 3.09 | 0.00 | 67 | 1016.6 |
| 20260504030733 | 79 | 124 | 3.0 | 9.0 | 0.02 | 3.12 | 0.00 | 67 | 1016.5 |
| 20260504030442 | 79 | 36 | 2.0 | 6.0 | 0.02 | 3.20 | 0.00 | 67 | 1016.5 |
| 20260504030224 | 79 | 54 | 0.0 | 7.0 | 0.02 | 3.23 | 0.00 | 68 | 1016.6 |
| 20260504025942 | 79 | 49 | 2.0 | 10.0 | 0.02 | 3.29 | 0.00 | 67 | 1016.6 |
| 20260504025713 | 79 | 50 | 2.0 | 10.0 | 0.01 | 3.33 | 0.00 | 66 | 1016.6 |
| 20260504025442 | 80 | 54 | 3.0 | 9.0 | 0.01 | 3.37 | 0.00 | 66 | 1016.5 |
| 20260504025204 | 81 | 285 | 5.0 | 9.0 | 0.01 | 3.44 | 0.00 | 66 | 1016.5 |
| 20260504024942 | 81 | 294 | 3.0 | 9.0 | 0.01 | 3.53 | 0.00 | 66 | 1016.5 |
| 20260504024653 | 81 | 351 | 4.0 | 10.0 | 0.01 | 3.56 | 0.00 | 66 | 1016.5 |
| 20260504024442 | 80 | 108 | 3.0 | 10.0 | 0.01 | 3.60 | 0.00 | 65 | 1016.5 |
| 20260504024144 | 81 | 257 | 3.0 | 16.0 | 0.01 | 3.69 | 0.00 | 67 | 1016.4 |
| 20260504023942 | 80 | 46 | 3.0 | 16.0 | 0.01 | 3.73 | 0.00 | 66 | 1016.4 |
| 20260504023633 | 80 | 286 | 3.0 | 8.0 | 0.01 | 3.80 | 0.00 | 66 | 1016.4 |
| 20260504023442 | 79 | 126 | 2.0 | 13.0 | 0.01 | 3.83 | 0.00 | 67 | 1016.4 |
| 20260504023123 | 79 | 83 | 6.0 | 13.0 | 0.01 | 3.92 | 0.00 | 67 | 1016.4 |
| 20260504022942 | 79 | 19 | 8.0 | 12.0 | 0.01 | 3.96 | 0.00 | 67 | 1016.5 |
| 20260504022613 | 79 | 230 | 3.0 | 7.0 | 0.01 | 4.06 | 0.00 | 67 | 1016.4 |
| 20260504022441 | 79 | 352 | 2.0 | 7.0 | 0.01 | 4.12 | 0.00 | 68 | 1016.5 |
| 20260504022103 | 77 | 5 | 3.0 | 12.0 | 0.00 | 4.21 | 0.00 | 68 | 1016.4 |
| 20260504021942 | 77 | 23 | 7.0 | 12.0 | 0.00 | 4.24 | 0.00 | 68 | 1016.4 |
| 20260504021552 | 77 | 85 | 5.0 | 14.0 | 0.00 | 4.31 | 0.00 | 68 | 1016.3 |
| 20260504021441 | 77 | 354 | 5.0 | 17.0 | 0.00 | 4.37 | 0.00 | 68 | 1016.3 |
| 20260504021043 | 77 | 76 | 9.0 | 17.0 | 0.00 | 4.42 | 0.00 | 67 | 1016.4 |
| 20260504020942 | 77 | 30 | 4.0 | 12.0 | 0.00 | 4.47 | 0.00 | 68 | 1016.4 |
| 20260504020533 | 77 | 3 | 6.0 | 12.0 | 0.00 | 4.52 | 0.00 | 68 | 1016.5 |
| 20260504020442 | 78 | 218 | 8.0 | 12.0 | 0.00 | 4.53 | 0.00 | 68 | 1016.4 |
| 20260504020023 | 78 | 345 | 1.0 | 12.0 | 0.00 | 4.62 | 0.00 | 69 | 1016.4 |
| 20260504015941 | 77 | 360 | 3.0 | 12.0 | 0.00 | 4.62 | 0.00 | 69 | 1016.4 |
| 20260504015513 | 77 | 254 | 3.0 | 11.0 | 0.00 | 4.73 | 0.00 | 68 | 1016.4 |
| 20260504015442 | 77 | 237 | 5.0 | 11.0 | 0.00 | 4.75 | 0.00 | 68 | 1016.3 |
| 20260504015003 | 77 | 286 | 2.0 | 5.0 | 0.00 | 4.80 | 0.00 | 70 | 1016.4 |
| 20260504014941 | 77 | 246 | 2.0 | 5.0 | 0.00 | 4.83 | 0.00 | 70 | 1016.3 |
| 20260504014453 | 76 | 56 | 1.0 | 12.0 | 0.00 | 4.87 | 0.00 | 69 | 1016.5 |
| 20260504014443 | 76 | 297 | 1.0 | 12.0 | 0.00 | 4.87 | 0.00 | 68 | 1016.5 |
| 20260504013943 | 77 | 76 | 6.0 | 9.0 | 0.00 | 4.99 | 0.00 | 68 | 1016.5 |
| 20260504013941 | 77 | 67 | 6.0 | 9.0 | 0.00 | 4.99 | 0.00 | 68 | 1016.5 |
| 20260504013441 | 78 | 24 | 6.0 | 10.0 | 0.00 | 5.10 | 0.00 | 68 | 1016.5 |
| 20260504013433 | 78 | 26 | 6.0 | 10.0 | 0.00 | 5.10 | 0.00 | 68 | 1016.5 |
| 20260504012942 | 77 | 244 | 0.0 | 6.0 | 0.00 | 5.20 | 0.00 | 68 | 1016.2 |
| 20260504012923 | 77 | 53 | 1.0 | 6.0 | 0.00 | 5.20 | 0.00 | 68 | 1016.2 |
| 20260504012441 | 77 | 265 | 2.0 | 12.0 | 0.00 | 5.33 | 0.00 | 67 | 1016.0 |
| 20260504012412 | 77 | 319 | 3.0 | 12.0 | 0.00 | 5.33 | 0.00 | 67 | 1016.0 |
| 20260504011941 | 77 | 151 | 5.0 | 9.0 | 0.00 | 5.42 | 0.00 | 67 | 1016.1 |
| 20260504011903 | 77 | 111 | 6.0 | 9.0 | 0.00 | 5.42 | 0.00 | 67 | 1016.1 |
| 20260504011441 | 77 | 221 | 4.0 | 14.0 | 0.00 | 5.48 | 0.00 | 66 | 1016.0 |
| 20260504010941 | 77 | 50 | 4.0 | 8.0 | 0.00 | 5.57 | 0.00 | 67 | 1015.9 |
| 20260504010843 | 77 | 19 | 4.0 | 8.0 | 0.00 | 5.58 | 0.00 | 66 | 1015.8 |
| 20260504010441 | 77 | 183 | 2.0 | 18.0 | 0.00 | 5.64 | 0.00 | 67 | 1015.7 |
| 20260504010332 | 76 | 31 | 3.0 | 18.0 | 0.00 | 5.65 | 0.00 | 66 | 1015.7 |
| 20260504005941 | 77 | 48 | 5.0 | 11.0 | 0.00 | 5.74 | 0.00 | 66 | 1015.7 |
| 20260504005822 | 77 | 89 | 5.0 | 11.0 | 0.00 | 5.76 | 0.00 | 66 | 1015.7 |
| 20260504005442 | 77 | 61 | 4.0 | 10.0 | 0.00 | 5.85 | 0.00 | 67 | 1015.7 |
| 20260504005313 | 77 | 236 | 3.0 | 8.0 | 0.00 | 5.91 | 0.00 | 67 | 1015.7 |
| 20260504004941 | 77 | 254 | 2.0 | 7.0 | 0.00 | 6.03 | 0.00 | 69 | 1015.7 |
| 20260504004802 | 76 | 29 | 5.0 | 7.0 | 0.00 | 6.08 | 0.00 | 69 | 1015.7 |
| 20260504004441 | 76 | 46 | 0.0 | 3.0 | 0.00 | 6.20 | 0.00 | 69 | 1015.6 |
| 20260504004253 | 76 | 351 | 1.0 | 4.0 | 0.00 | 6.23 | 0.00 | 70 | 1015.7 |
| 20260504003941 | 75 | 252 | 1.0 | 4.0 | 0.00 | 6.27 | 0.00 | 71 | 1015.7 |
| 20260504003742 | 75 | 177 | 0.0 | 2.0 | 0.00 | 6.30 | 0.00 | 71 | 1015.8 |
| 20260504003441 | 75 | 89 | 0.0 | 3.0 | 0.00 | 6.43 | 0.00 | 71 | 1015.8 |
| 20260504003233 | 74 | 24 | 0.0 | 3.0 | 0.00 | 6.50 | 0.00 | 70 | 1015.8 |
| 20260504002940 | 74 | 322 | 0.0 | 2.0 | 0.00 | 6.56 | 0.00 | 70 | 1015.8 |
| 20260504002722 | 74 | 214 | 1.0 | 5.0 | 0.00 | 6.57 | 0.00 | 71 | 1015.8 |
| 20260504002441 | 74 | 334 | 2.0 | 5.0 | 0.00 | 6.66 | 0.00 | 71 | 1015.8 |
| 20260504002212 | 74 | 31 | 1.0 | 8.0 | 0.00 | 6.70 | 0.00 | 71 | 1015.7 |
| 20260504001941 | 74 | 25 | 1.0 | 10.0 | 0.00 | 6.76 | 0.00 | 72 | 1015.6 |
| 20260504001702 | 74 | 56 | 6.0 | 10.0 | 0.00 | 6.85 | 0.00 | 72 | 1015.6 |
| 20260504001440 | 74 | 27 | 2.0 | 7.0 | 0.00 | 6.94 | 0.00 | 73 | 1015.6 |
| 20260504001152 | 74 | 293 | 3.0 | 5.0 | 0.00 | 7.07 | 0.00 | 74 | 1015.6 |
| 20260504000941 | 74 | 292 | 3.0 | 4.0 | 0.00 | 7.14 | 0.00 | 73 | 1015.6 |
| 20260504000641 | 74 | 54 | 0.0 | 2.0 | 0.00 | 7.21 | 0.00 | 72 | 1015.7 |
| 20260504000440 | 74 | 8 | 0.0 | 1.0 | 0.00 | 7.24 | 0.00 | 73 | 1015.5 |
| 20260504000132 | 74 | 317 | 0.0 | 5.0 | 0.00 | 7.27 | 0.00 | 71 | 1015.4 |
| 20260503235941 | 74 | 30 | 0.0 | 6.0 | 0.00 | 7.27 | 0.00 | 70 | 1015.3 |
| 20260503235622 | 74 | 106 | 3.0 | 9.0 | 0.00 | 7.32 | 0.00 | 70 | 1015.4 |
| 20260503235441 | 74 | 112 | 4.0 | 9.0 | 0.00 | 7.34 | 0.00 | 71 | 1015.4 |
| 20260503235112 | 73 | 150 | 1.0 | 4.0 | 0.00 | 7.39 | 0.00 | 72 | 1015.4 |
| 20260503234941 | 73 | 178 | 1.0 | 4.0 | 0.00 | 7.41 | 0.00 | 72 | 1015.4 |
| 20260503234602 | 73 | 67 | 2.0 | 6.0 | 0.00 | 7.44 | 0.00 | 73 | 1015.3 |
| 20260503234441 | 73 | 29 | 3.0 | 7.0 | 0.00 | 7.46 | 0.00 | 74 | 1015.2 |
| 20260503234052 | 73 | 255 | 3.0 | 9.0 | 0.00 | 7.49 | 0.00 | 73 | 1015.2 |
| 20260503233940 | 73 | 271 | 6.0 | 9.0 | 0.00 | 7.51 | 0.00 | 73 | 1015.1 |
| 20260503233542 | 73 | 264 | 0.0 | 5.0 | 0.00 | 7.54 | 0.00 | 73 | 1014.9 |
| 20260503233440 | 73 | 39 | 1.0 | 5.0 | 0.00 | 7.58 | 0.00 | 73 | 1015.0 |
| 20260503233032 | 73 | 92 | 1.0 | 9.0 | 0.00 | 7.59 | 0.00 | 73 | 1015.0 |
| 20260503232940 | 73 | 31 | 2.0 | 9.0 | 0.00 | 7.60 | 0.00 | 73 | 1015.0 |
| 20260503232521 | 73 | 45 | 2.0 | 4.0 | 0.00 | 7.60 | 0.00 | 74 | 1014.9 |
| 20260503232440 | 73 | 79 | 1.0 | 5.0 | 0.00 | 7.61 | 0.00 | 74 | 1014.8 |
| 20260503232012 | 73 | 75 | 2.0 | 12.0 | 0.00 | 7.62 | 0.00 | 74 | 1014.8 |
| 20260503231940 | 73 | 53 | 0.0 | 13.0 | 0.00 | 7.62 | 0.00 | 74 | 1014.8 |
| 20260503231502 | 72 | 80 | 8.0 | 14.0 | 0.00 | 7.71 | 0.00 | 75 | 1014.6 |
| 20260503231441 | 72 | 100 | 7.0 | 14.0 | 0.00 | 7.71 | 0.00 | 75 | 1014.5 |
| 20260503230951 | 72 | 20 | 3.0 | 10.0 | 0.00 | 7.80 | 0.00 | 76 | 1014.6 |
| 20260503230940 | 72 | 47 | 4.0 | 10.0 | 0.00 | 7.80 | 0.00 | 76 | 1014.5 |
| 20260503230440 | 72 | 64 | 1.0 | 7.0 | 0.00 | 7.88 | 0.00 | 76 | 1014.6 |
| 20260503225941 | 72 | 39 | 3.0 | 6.0 | 0.00 | 7.94 | 0.00 | 77 | 1014.3 |
| 20260503225931 | 72 | 64 | 4.0 | 6.0 | 0.00 | 7.94 | 0.00 | 77 | 1014.3 |
| 20260503225440 | 71 | 48 | 2.0 | 6.0 | 0.00 | 8.01 | 0.00 | 78 | 1014.2 |
| 20260503225421 | 71 | 64 | 2.0 | 6.0 | 0.00 | 8.01 | 0.00 | 78 | 1014.3 |
| 20260503224940 | 72 | 16 | 1.0 | 3.0 | 0.00 | 8.12 | 0.00 | 79 | 1014.3 |
| 20260503224911 | 72 | 61 | 1.0 | 3.0 | 0.00 | 8.12 | 0.00 | 79 | 1014.3 |
| 20260503224440 | 71 | 60 | 1.0 | 3.0 | 0.00 | 8.22 | 0.00 | 79 | 1014.2 |
| 20260503224402 | 71 | 193 | 1.0 | 3.0 | 0.00 | 8.22 | 0.00 | 79 | 1014.1 |
| 20260503223939 | 71 | 35 | 0.0 | 1.0 | 0.00 | 8.27 | 0.00 | 80 | 1014.2 |
| 20260503223851 | 71 | 41 | 0.0 | 1.0 | 0.00 | 8.29 | 0.00 | 80 | 1014.2 |
| 20260503223440 | 71 | 48 | 1.0 | 3.0 | 0.00 | 8.35 | 0.00 | 80 | 1014.1 |
| 20260503223341 | 71 | 55 | 1.0 | 3.0 | 0.00 | 8.36 | 0.00 | 80 | 1014.1 |